CW5444 Weather Reports


time (UTC)temp
C
wind
direction
speed
KPH
gust
KPH
rain 1hr
cm
rain 24hr
cm
rain mn
cm
humidity
%
barometer
mb
20260508160428 14 175 4.8 8.0 0.00 0.03 0.03 51 1017.7
20260508155431 14 196 4.8 8.0 0.00 0.03 0.03 54 1017.9
20260508154417 13 196 3.2 9.7 0.00 0.03 0.03 55 1018.0
20260508153422 13 209 6.4 11.3 0.00 0.03 0.03 56 1018.1
20260508152429 13 196 1.6 12.9 0.00 0.03 0.03 54 1018.3
20260508151431 13 236 4.8 9.7 0.00 0.03 0.03 57 1018.2
20260508150417 12 177 4.8 11.3 0.00 0.03 0.03 60 1018.3
20260508145420 12 171 1.6 6.4 0.00 0.08 0.03 63 1018.3
20260508144424 11 196 3.2 8.0 0.00 0.08 0.03 62 1018.3
20260508143445 10 179 3.2 9.7 0.00 0.08 0.03 64 1018.2
20260508142427 10 195 1.6 8.0 0.00 0.08 0.03 75 1018.1
20260508141446 9 182 0.0 4.8 0.00 0.08 0.03 83 1018.1
20260508140430 8 175 1.6 6.4 0.00 0.08 0.03 88 1018.1
20260508135416 8 188 1.6 4.8 0.00 0.08 0.03 93 1018.3
20260508134419 7 172 0.0 0.0 0.00 0.08 0.03 93 1018.1
20260508133421 7 360 0.0 0.0 0.00 0.08 0.03 94 1018.1
20260508132420 7 355 0.0 0.0 0.00 0.08 0.03 94 1018.1
20260508131425 6 355 0.0 0.0 0.00 0.08 0.03 94 1017.8
20260508130428 6 355 0.0 0.0 0.00 0.08 0.03 94 1017.7
20260508125429 5 355 1.6 4.8 0.00 0.08 0.03 94 1017.8
20260508124430 5 350 3.2 4.8 0.00 0.08 0.03 94 1017.7
20260508123436 4 296 0.0 4.8 0.00 0.08 0.03 94 1017.7
20260508122418 4 292 1.6 3.2 0.00 0.08 0.03 94 1017.8
20260508121430 3 286 1.6 3.2 0.00 0.08 0.03 94 1017.9
20260508120433 3 282 1.6 4.8 0.00 0.08 0.03 93 1017.8
20260508115421 2 281 1.6 3.2 0.00 0.08 0.03 93 1017.7
20260508114425 2 277 0.0 0.0 0.00 0.08 0.03 93 1017.5
20260508113428 1 277 0.0 0.0 0.00 0.08 0.03 93 1017.5
20260508112429 1 277 0.0 0.0 0.00 0.08 0.03 92 1017.4
20260508111433 1 277 0.0 0.0 0.00 0.08 0.03 92 1017.3
20260508110434 1 277 0.0 0.0 0.00 0.08 0.03 92 1017.2
20260508105415 1 277 0.0 0.0 0.00 0.10 0.03 92 1017.2
20260508104432 1 277 0.0 0.0 0.00 0.10 0.03 92 1017.0
20260508103415 1 203 0.0 0.0 0.00 0.10 0.03 92 1016.9
20260508102419 1 203 0.0 0.0 0.00 0.10 0.03 92 1016.9
20260508101424 1 203 0.0 0.0 0.00 0.10 0.03 92 1016.9
20260508100426 1 203 0.0 0.0 0.00 0.10 0.03 92 1017.0
20260508095425 1 203 0.0 0.0 0.00 0.15 0.03 91 1016.9
20260508094430 1 203 0.0 1.6 0.00 0.15 0.03 91 1016.8
20260508093432 1 203 1.6 3.2 0.00 0.15 0.03 91 1016.8
20260508092432 1 203 0.0 0.0 0.00 0.15 0.03 91 1016.7
20260508091431 1 203 0.0 0.0 0.00 0.15 0.03 91 1016.7
20260508090450 1 203 0.0 0.0 0.00 0.15 0.03 91 1016.6
20260508085432 1 203 0.0 0.0 0.00 0.15 0.03 91 1016.6
20260508084434 1 203 0.0 0.0 0.00 0.15 0.03 91 1016.7
20260508083417 1 203 0.0 0.0 0.00 0.15 0.03 91 1016.7
20260508082418 1 203 0.0 0.0 0.00 0.15 0.03 91 1016.6
20260508081420 2 203 0.0 0.0 0.00 0.15 0.03 91 1016.6
20260508080423 1 203 0.0 0.0 0.00 0.15 0.03 91 1016.5
20260508075448 2 203 0.0 0.0 0.00 0.15 0.03 91 1016.6
20260508074429 2 203 0.0 0.0 0.00 0.15 0.03 91 1016.4
20260508073433 2 203 0.0 0.0 0.00 0.15 0.03 91 1016.4
20260508072434 2 203 0.0 0.0 0.00 0.15 0.03 91 1016.3
20260508071417 2 203 0.0 0.0 0.00 0.15 0.03 90 1016.3
20260508070425 2 203 0.0 0.0 0.00 0.15 0.03 90 1016.2
20260508065430 2 203 0.0 0.0 0.03 0.51 0.03 91 1016.1
20260508064432 2 203 0.0 0.0 0.03 0.51 0.03 90 1016.1
20260508063435 3 203 0.0 0.0 0.03 0.51 0.03 90 1016.1
20260508062419 3 203 0.0 0.0 0.03 0.51 0.03 90 1016.3
20260508061419 3 203 0.0 0.0 0.03 0.51 0.03 91 1016.2
20260508060424 3 203 0.0 0.0 0.03 0.51 0.03 91 1016.2
20260508055431 3 203 0.0 0.0 0.00 0.51 0.00 91 1016.3
20260508054416 3 203 0.0 0.0 0.00 0.51 0.00 90 1016.4
20260508053435 4 203 0.0 0.0 0.00 0.51 0.00 90 1016.4
20260508052418 4 203 0.0 0.0 0.00 0.51 0.00 90 1016.3
20260508051440 4 203 0.0 0.0 0.00 0.51 0.00 91 1016.3
20260508050416 4 203 0.0 0.0 0.00 0.51 0.00 90 1016.2
20260508045419 4 203 0.0 0.0 0.00 0.51 0.00 90 1016.1
20260508044422 5 203 0.0 0.0 0.00 0.51 0.00 90 1015.9
20260508043423 5 203 0.0 0.0 0.00 0.51 0.00 90 1015.9
20260508042443 5 203 0.0 0.0 0.00 0.51 0.00 90 1015.8
20260508041422 5 203 0.0 0.0 0.00 0.51 0.00 90 1015.6
20260508040424 6 203 0.0 0.0 0.00 0.51 0.00 90 1015.5
20260508035444 6 203 0.0 0.0 0.00 0.51 0.51 90 1015.6
20260508034424 6 203 0.0 0.0 0.00 0.51 0.51 90 1015.7
20260508033427 6 203 0.0 3.2 0.00 0.51 0.51 90 1015.5
20260508032432 6 203 0.0 3.2 0.00 0.51 0.51 90 1015.6
20260508031434 6 203 0.0 1.6 0.00 0.51 0.51 89 1015.3
20260508030454 6 203 0.0 0.0 0.00 0.51 0.51 89 1015.2
20260508025455 6 203 0.0 0.0 0.00 0.69 0.51 89 1015.2
20260508024434 6 203 0.0 0.0 0.00 0.69 0.51 89 1015.1
20260508023419 7 203 0.0 0.0 0.00 0.69 0.51 89 1015.1
20260508022419 7 203 0.0 0.0 0.00 0.69 0.51 89 1014.9
20260508021420 6 203 0.0 0.0 0.00 0.69 0.51 88 1014.9
20260508020422 7 203 0.0 0.0 0.00 0.69 0.51 88 1014.7
20260508015423 7 203 0.0 0.0 0.00 0.79 0.51 87 1014.6
20260508014424 7 203 0.0 0.0 0.00 0.79 0.51 87 1014.5
20260508013424 7 203 0.0 0.0 0.00 0.79 0.51 87 1014.3
20260508012425 8 203 0.0 0.0 0.00 0.79 0.51 86 1014.1
20260508011427 8 203 0.0 0.0 0.00 0.79 0.51 85 1013.9
20260508010434 8 203 0.0 0.0 0.00 0.79 0.51 84 1013.8
20260508005420 8 203 0.0 0.0 0.00 0.84 0.51 83 1013.5
20260508004425 9 203 0.0 0.0 0.00 0.84 0.51 82 1013.5
20260508003431 10 203 0.0 0.0 0.00 0.84 0.51 80 1013.4
20260508002417 10 203 0.0 0.0 0.00 0.84 0.51 78 1013.4
20260508001423 11 203 0.0 0.0 0.00 0.84 0.51 77 1013.3
20260508000429 11 203 0.0 0.0 0.00 0.84 0.51 75 1013.4
20260507235434 12 203 0.0 0.0 0.00 0.84 0.51 74 1013.4
20260507234442 12 204 0.0 3.2 0.00 0.84 0.51 73 1013.4
20260507233429 13 204 1.6 4.8 0.00 0.84 0.51 69 1013.4
20260507232420 13 202 3.2 8.0 0.00 0.84 0.51 69 1013.5
20260507231446 13 195 3.2 8.0 0.00 0.84 0.51 68 1013.4
20260507230432 13 209 4.8 9.7 0.00 0.84 0.51 67 1013.4
20260507225418 13 185 4.8 11.3 0.00 0.84 0.51 68 1013.3
20260507224422 13 178 3.2 8.0 0.00 0.84 0.51 69 1013.3
20260507223429 13 197 1.6 6.4 0.00 0.84 0.51 70 1013.0
20260507222417 13 207 4.8 8.0 0.00 0.84 0.51 67 1013.1
20260507221444 13 194 4.8 12.9 0.00 0.84 0.51 69 1013.0
20260507220427 13 183 4.8 12.9 0.00 0.84 0.51 71 1012.9
20260507215453 12 218 6.4 12.9 0.00 0.84 0.51 71 1012.8
20260507214420 12 197 8.0 14.5 0.00 0.84 0.51 70 1012.7
20260507213429 13 215 8.0 14.5 0.00 0.84 0.51 68 1012.8
20260507212415 13 196 6.4 19.3 0.00 0.84 0.51 69 1012.7
20260507211425 13 205 8.0 14.5 0.00 0.84 0.51 68 1012.7
20260507210432 13 187 6.4 11.3 0.00 0.84 0.51 72 1012.5
20260507205419 12 206 3.2 8.0 0.00 0.84 0.51 74 1012.5
20260507204425 12 215 3.2 11.3 0.00 0.84 0.51 79 1012.5
20260507203432 11 211 6.4 11.3 0.00 0.84 0.51 78 1012.5
20260507202438 11 195 3.2 9.7 0.00 0.84 0.51 80 1012.6
20260507201417 11 205 4.8 9.7 0.00 0.84 0.51 80 1012.7
20260507200426 11 220 0.0 6.4 0.00 0.84 0.51 80 1012.6
20260507195429 11 210 3.2 4.8 0.00 0.84 0.51 80 1012.5
20260507194435 11 267 3.2 8.0 0.00 0.84 0.51 81 1012.6
20260507193422 11 207 1.6 4.8 0.00 0.84 0.51 82 1012.6
20260507192432 11 207 3.2 9.7 0.00 0.84 0.51 83 1012.7
20260507191421 11 193 3.2 9.7 0.00 0.84 0.51 84 1012.8
20260507190423 10 205 3.2 6.4 0.00 0.84 0.51 85 1013.1
20260507185433 10 194 1.6 6.4 0.00 0.84 0.51 86 1013.0
20260507184439 10 228 4.8 6.4 0.00 0.84 0.51 85 1013.1
20260507183445 10 213 3.2 8.0 0.00 0.84 0.51 86 1013.0
20260507182432 10 211 3.2 6.4 0.00 0.84 0.51 87 1013.0
20260507181419 10 207 1.6 8.0 0.00 0.84 0.51 87 1012.9
20260507180425 10 198 3.2 8.0 0.00 0.84 0.51 87 1012.9
20260507175432 10 209 4.8 11.3 0.00 0.84 0.51 87 1013.0
20260507174437 10 219 3.2 9.7 0.00 0.84 0.51 88 1012.9
20260507173421 10 211 0.0 6.4 0.00 0.84 0.51 89 1012.8
20260507172429 11 192 3.2 8.0 0.00 0.84 0.51 89 1012.9
20260507171420 11 209 3.2 11.3 0.00 0.84 0.51 88 1012.8
20260507170427 11 257 3.2 11.3 0.00 0.84 0.51 89 1012.8
20260507165434 11 227 3.2 8.0 0.00 0.84 0.51 90 1012.8
20260507164421 11 208 1.6 6.4 0.00 0.84 0.51 90 1012.8
20260507163430 11 231 4.8 6.4 0.00 0.84 0.51 89 1012.7
20260507162418 11 203 3.2 6.4 0.00 0.84 0.51 89 1012.8
20260507161424 11 225 3.2 6.4 0.00 0.84 0.51 89 1012.7